Home > Weather > Rawalpindi > Past weeks

Flag for Pakistan Past Weather in Rawalpindi, Pakistan — Yesterday and Last 2 Weeks

Now
82 °F

Partly cloudy.


Feels Like: 86 °F
Forecast: 82 / 99 °F
Wind: 7 mph from East

Location: Islamabad Airport

Current Time: Jul 2, 2016 at 1:45:29 AM

Latest Report: Jul 2, 2016 at 12:30 AM


Visibility: 4 mi

Pressure: 29.42 "Hg (27.79 "Hg at 501m altitude)

Humidity: 66%

Dew Point: 70 °F

Location of RawalpindiLocation

Past Weather in Rawalpindi — Graph

°F

Rawalpindi Temperature Yesterday

Maximum temperature yesterday: 106 °F (at 2:00 PM)
Minimum temperature yesterday: 79 °F (at 8:00 PM)
Average temperature yesterday: 96 °F

High & Low Weather Summary for the Past Weeks

 TemperatureHumidityPressure
High106 °F (Jul 1, 2:00 PM)89% (Jun 21, 4:00 AM)29.77 "Hg (Jun 21, 4:00 AM)
Low73 °F (Jun 21, 4:00 AM)33% (Jun 24, 6:00 PM)29.36 "Hg (Jul 1, 4:00 PM)
Average91 °F55%29.63 "Hg
* Reported Jun 17 12:00 AM — Jul 2 12:30 AM, Rawalpindi, Weather by CustomWeather, © 2016

Note: Actual official high and low records may vary slightly from our data, if they occured in-between our weather recording intervals... More about our weather records

Advertising

Rawalpindi Weather History for the Previous 24 Hours

Scroll right to see more
 ConditionsComfort  
Time TempWeatherWind HumidityBarometerVisibility
12:30 AM
Sat, Jul 2
82 °FPartly cloudy.7 mph66%29.42 "Hg4 mi
12:00 AM82 °FPartly cloudy.7 mph66%29.42 "Hg4 mi
11:00 PM
Fri, Jul 1
82 °FPartly cloudy.12 mph66%29.42 "Hg4 mi
10:30 PM81 °FPartly cloudy.12 mph74%29.45 "Hg4 mi
10:00 PM81 °FPartly cloudy.12 mph74%29.45 "Hg4 mi
8:00 PM79 °FThunderstorms. Partly cloudy.7 mph89%29.47 "Hg4 mi
7:30 PM81 °FThunderstorms. Partly cloudy.18 mph84%29.50 "Hg4 mi
7:00 PM81 °FThunderstorms. Broken clouds.28 mph84%29.50 "Hg1 mi
6:30 PM97 °FScattered clouds.40 mph44%29.36 "Hg2 mi
6:00 PM97 °FScattered clouds.40 mph44%29.36 "Hg2 mi
5:00 PM106 °FScattered clouds.18 mph36%29.36 "Hg3 mi
4:30 PM106 °FScattered clouds.18 mph36%29.36 "Hg3 mi
4:00 PM106 °FScattered clouds.18 mph36%29.36 "Hg3 mi
3:30 PM106 °FScattered clouds.18 mph36%29.39 "Hg3 mi
2:30 PM106 °FScattered clouds.18 mph38%29.42 "Hg3 mi
2:00 PM106 °FScattered clouds.18 mph38%29.42 "Hg3 mi
1:30 PM104 °FScattered clouds.14 mph43%29.45 "Hg3 mi
1:00 PM104 °FScattered clouds.14 mph43%29.45 "Hg3 mi
12:30 PM104 °FScattered clouds.12 mph43%29.47 "Hg3 mi
12:00 PM104 °FScattered clouds.12 mph43%29.47 "Hg3 mi
11:30 AM102 °FHaze.12 mph45%29.47 "Hg3 mi
11:00 AM102 °FHaze.12 mph45%29.47 "Hg3 mi
10:30 AM100 °FHaze.14 mph45%29.50 "Hg3 mi
10:00 AM100 °FHaze.14 mph45%29.50 "Hg3 mi
9:00 AM97 °FHaze.14 mph53%29.50 "Hg3 mi
8:30 AM95 °FHaze.14 mph56%29.50 "Hg3 mi
4:00 AM91 °FPassing clouds.5 mph56%29.50 "Hg4 mi
3:00 AM91 °FPassing clouds.5 mph56%29.50 "Hg4 mi
2:00 AM91 °FPassing clouds.7 mph56%29.50 "Hg4 mi
1:00 AM93 °FPassing clouds.5 mph53%29.50 "Hg4 mi
Weather by CustomWeather, © 2016

See weather overviewHow to use our weather pages